Location: Plum
(40.5000°N, 79.7500°W)
Time: 09:40:45
(UTC-04:00)

MOZ.5/SAFIR/RUBIN 5/SL-8 - Visible Passes

Search period start: 01 May 2016 00:00
Search period end: 11 May 2016 00:00
Orbit: 678 x 707 km, 97.9° (Epoch: 30 April)

Date Brightness Start Highest point End Pass type
(mag) Time Alt. Az. Time Alt. Az. Time Alt. Az.
01 May 6.1 04:14:56 10° ESE 04:18:39 24° ENE 04:22:22 10° NNE visible
02 May 4.3 04:53:39 10° SSE 04:58:12 61° ENE 05:02:47 10° N visible
03 May 6.6 03:57:56 10° ESE 04:00:50 17° ENE 04:03:45 10° NNE visible
03 May 3.9 05:33:30 10° S 05:37:59 51° W 05:42:31 10° NNW visible
04 May 5.2 04:35:59 10° SE 04:40:17 40° ENE 04:44:37 10° N visible
05 May 6.9 03:41:41 10° ENE 03:43:04 11° ENE 03:44:27 10° NE visible
05 May 3.7 05:15:21 10° S 05:19:58 79° WSW 05:24:38 10° NNW visible
06 May 5.9 04:18:33 10° SE 04:22:24 27° ENE 04:26:17 10° NNE visible
07 May 4.1 04:57:24 10° SSE 05:01:59 68° ENE 05:06:37 10° N visible
08 May 6.5 04:01:26 10° ESE 04:04:35 18° ENE 04:07:44 10° NNE visible
09 May 5.0 04:39:41 10° SE 04:44:03 44° ENE 04:48:29 10° N visible
10 May 6.8 03:44:52 10° E 03:46:48 12° ENE 03:48:45 10° NE visible
10 May 3.7 05:19:10 10° S 05:23:46 71° WSW 05:28:25 10° NNW visible
